Location: Audinghen
(50.8518°N, 1.6129°E)
Time: 02:42:02
(UTC+00:00)

Cosmos 1072 Rocket - Pass Details

Date: 07 August 2020
Orbit: 949 x 1007 km, 82.9° (Epoch: 25 September)

Event Time Altitude Azimuth Distance (km) Brightness Sun altitude
Exits shadow 00:39:12 45° 199° (SSW) 1,284 4.6 -22.2°
Maximum altitude 00:41:15 81° 280° (W) 970 4.4 -22.2°
Drops below altitude 10° 00:47:24 10° 8° (N) 2,687 8.0 -22.0°
Sets 00:49:55 0° 10° (N) 3,637 9.0 -21.9°
